| time (UTC) | temp F | wind direction | speed MPH | gust MPH | rain 1hr in | rain 24hr in | rain mn in | humidity % | barometer mb |
| 20260504023011 | 87 | 200 | 15.0 | 24.0 | 0.00 | 0.00 | 0.00 | 21 | 962.5 |
| 20260504021509 | 87 | 205 | 13.0 | 27.0 | 0.00 | 0.00 | 0.00 | 21 | 962.2 |
| 20260504020011 | 88 | 175 | 20.0 | 30.0 | 0.00 | 0.00 | 0.00 | 21 | 961.8 |
| 20260504014511 | 90 | 182 | 12.0 | 18.0 | 0.00 | 0.00 | 0.00 | 19 | 961.7 |
| 20260504013007 | 91 | 219 | 10.0 | 17.0 | 0.00 | 0.00 | 0.00 | 18 | 961.4 |
| 20260504011506 | 91 | 172 | 9.0 | 19.0 | 0.00 | 0.00 | 0.00 | 18 | 961.5 |
| 20260504010010 | 92 | 217 | 13.0 | 21.0 | 0.00 | 0.00 | 0.00 | 18 | 961.5 |
| 20260504004510 | 93 | 236 | 11.0 | 21.0 | 0.00 | 0.00 | 0.00 | 18 | 961.5 |
| 20260504003005 | 93 | 229 | 10.0 | 18.0 | 0.00 | 0.00 | 0.00 | 18 | 961.4 |
| 20260504001511 | 94 | 153 | 5.0 | 19.0 | 0.00 | 0.00 | 0.00 | 18 | 961.4 |
| 20260504000002 | 94 | 217 | 10.0 | 21.0 | 0.00 | 0.00 | 0.00 | 18 | 961.4 |
| 20260503234502 | 94 | 194 | 8.0 | 19.0 | 0.00 | 0.00 | 0.00 | 18 | 961.3 |
| 20260503233100 | 95 | 190 | 6.0 | 17.0 | 0.00 | 0.00 | 0.00 | 18 | 961.5 |
| 20260503231558 | 93 | 76 | 5.0 | 10.0 | 0.00 | 0.00 | 0.00 | 19 | 961.6 |
| 20260503230105 | 94 | 198 | 8.0 | 11.0 | 0.00 | 0.00 | 0.00 | 19 | 961.8 |
| 20260503224601 | 94 | 215 | 0.0 | 15.0 | 0.00 | 0.00 | 0.00 | 19 | 962.2 |
| 20260503223051 | 94 | 228 | 5.0 | 13.0 | 0.00 | 0.00 | 0.00 | 20 | 962.4 |
| 20260503221559 | 94 | 190 | 5.0 | 17.0 | 0.00 | 0.00 | 0.00 | 19 | 962.6 |
| 20260503220047 | 93 | 221 | 5.0 | 20.0 | 0.00 | 0.00 | 0.00 | 20 | 962.9 |
| 20260503214544 | 93 | 261 | 6.0 | 16.0 | 0.00 | 0.00 | 0.00 | 19 | 963.2 |
| 20260503213142 | 92 | 146 | 2.0 | 17.0 | 0.00 | 0.00 | 0.00 | 21 | 963.4 |
| 20260503211539 | 92 | 145 | 5.0 | 21.0 | 0.00 | 0.00 | 0.00 | 21 | 963.7 |
| 20260503210136 | 92 | 142 | 5.0 | 20.0 | 0.00 | 0.00 | 0.00 | 21 | 964.1 |
| 20260503204534 | 91 | 119 | 0.0 | 19.0 | 0.00 | 0.00 | 0.00 | 22 | 964.2 |
| 20260503203133 | 91 | 192 | 6.0 | 18.0 | 0.00 | 0.00 | 0.00 | 22 | 964.4 |
| 20260503201530 | 92 | 137 | 0.0 | 15.0 | 0.00 | 0.00 | 0.00 | 22 | 964.6 |
| 20260503200130 | 91 | 148 | 4.0 | 15.0 | 0.00 | 0.00 | 0.00 | 23 | 964.8 |
| 20260503194528 | 91 | 197 | 6.0 | 15.0 | 0.00 | 0.00 | 0.00 | 23 | 964.9 |
| 20260503193040 | 90 | 211 | 7.0 | 14.0 | 0.00 | 0.00 | 0.00 | 24 | 965.1 |
| 20260503191551 | 91 | 187 | 4.0 | 12.0 | 0.00 | 0.00 | 0.00 | 26 | 965.4 |
| 20260503190121 | 90 | 125 | 3.0 | 11.0 | 0.00 | 0.00 | 0.00 | 27 | 965.6 |
| 20260503184517 | 89 | 95 | 4.0 | 13.0 | 0.00 | 0.00 | 0.00 | 27 | 965.8 |
| 20260503183015 | 88 | 140 | 4.0 | 12.0 | 0.00 | 0.00 | 0.00 | 28 | 966.1 |
| 20260503181514 | 88 | 142 | 2.0 | 12.0 | 0.00 | 0.00 | 0.00 | 26 | 966.3 |
| 20260503180015 | 88 | 123 | 0.0 | 12.0 | 0.00 | 0.00 | 0.00 | 26 | 966.4 |
| 20260503174511 | 87 | 150 | 3.0 | 12.0 | 0.00 | 0.00 | 0.00 | 27 | 966.6 |
| 20260503173009 | 86 | 144 | 3.0 | 10.0 | 0.00 | 0.00 | 0.00 | 28 | 966.7 |
| 20260503171505 | 86 | 137 | 5.0 | 16.0 | 0.00 | 0.00 | 0.00 | 29 | 966.7 |
| 20260503160107 | 83 | 96 | 6.0 | 13.0 | 0.00 | 0.00 | 0.00 | 32 | 967.0 |
| 20260503081514 | 78 | 52 | 0.0 | 0.0 | 0.00 | 0.00 | 0.00 | 28 | 966.1 |
| 20260503071502 | 81 | 53 | 0.0 | 0.0 | 0.00 | 0.00 | 0.00 | 25 | 966.2 |
| 20260503054610 | 82 | 52 | 0.0 | 0.0 | 0.00 | 0.00 | 0.00 | 24 | 965.8 |
| 20260503053056 | 82 | 52 | 0.0 | 0.0 | 0.00 | 0.00 | 0.00 | 23 | 965.7 |
| 20260503051555 | 82 | 53 | 0.0 | 0.0 | 0.00 | 0.00 | 0.00 | 24 | 965.8 |
| 20260503050055 | 82 | 53 | 0.0 | 0.0 | 0.00 | 0.00 | 0.00 | 23 | 965.6 |
| 20260503044554 | 83 | 53 | 0.0 | 0.0 | 0.00 | 0.00 | 0.00 | 23 | 965.5 |
| 20260503043058 | 83 | 53 | 0.0 | 0.0 | 0.00 | 0.00 | 0.00 | 23 | 965.3 |
| 20260503041554 | 84 | 53 | 0.0 | 0.0 | 0.00 | 0.00 | 0.00 | 23 | 965.2 |
| 20260503040056 | 84 | 52 | 0.0 | 0.0 | 0.00 | 0.00 | 0.00 | 22 | 965.0 |
| 20260503034553 | 85 | 52 | 0.0 | 0.0 | 0.00 | 0.00 | 0.00 | 21 | 964.7 |
| 20260503033054 | 85 | 53 | 0.0 | 0.0 | 0.00 | 0.00 | 0.00 | 21 | 964.6 |
| 20260503031552 | 85 | 53 | 0.0 | 0.0 | 0.00 | 0.00 | 0.00 | 21 | 964.5 |
| 20260503030051 | 86 | 53 | 0.0 | 0.0 | 0.00 | 0.00 | 0.00 | 20 | 964.5 |
| 20260503024551 | 87 | 52 | 0.0 | 0.0 | 0.00 | 0.00 | 0.00 | 20 | 964.4 |